{"data":{"norad_id":61750,"epoch":"2026-05-25T03:49:53.156928Z","epoch_age_seconds":64692,"freshness":"FRESH","line1":"1 61750U 24199R   26145.15964302  .00034151  00000+0  53983-3 0  9996","line2":"2 61750  97.2998  20.4155 0007111  29.5517 330.6137 15.53377373133971","mean_motion":15.53377373,"eccentricity":0.0007111,"inclination_deg":97.2998,"raan_deg":20.4155,"arg_perigee_deg":29.5517,"mean_anomaly_deg":330.6137,"bstar":0.00053983,"rev_number":13397,"period_min":92.701234421805,"perigee_km":402.04869022351,"apogee_km":411.69833217254,"semimajor_km":6785.010511198,"source":"CELESTRAK","updated_at":"2026-05-25T13:38:02.551590Z"}}